Terminal Aerodrome Forecast
Issued by NWS

Home | Current Version | Previous Version | Text Only | Print | Product List | Glossary On
Versions: 1 2 3 4 5 6 7 8 9 10 11 12 13 14 15 16
000
FTAK31 PAJN 301100
TAFAGY
TAF
PAGY 301121Z 3012/3112 03013KT P6SM OVC025
     FM301700 04013G23KT P6SM SCT040 BKN060
     FM310000 04015G25KT P6SM SKC
      AMD LTD TO CLD VIS AND WIND=

USA.gov is the U.S. government's official web portal to all federal, state and local government web resources and services.